When you browse on this site, cookies collect data to enhance your experience and personalize the content and advertising you see.
Visit our Privacy Policy to learn more. By continuing to use the site, you agree to this use of cookies and data.
  • In Deutschland
  • Länderverzeichnis
  • Für 7 Tage
  • Wassertemperatur
  • Wetterkarte
  • Widgets
  • user-avatar
    Anmelden

    Stündliche Wetter Linz

    Heute, 15 November, Freitag

    Zeit Temperatur Niederschläge Wind Luftdruck Luftfeuchtigkeit
    00:00 +2°C° 0 mm 3 m/S 724 mmHg 89%
    01:00 +1°C° 0 mm 4 m/S 724 mmHg 88%
    02:00 +1°C° 0 mm 4 m/S 724 mmHg 88%
    03:00 +3°C° 0 mm 4 m/S 724 mmHg 87%
    04:00 +3°C° 0 mm 4 m/S 723 mmHg 86%
    05:00 +3°C° 0 mm 5 m/S 723 mmHg 85%
    06:00 +5°C° 0 mm 5 m/S 723 mmHg 84%
    07:00 +4°C° 0 mm 6 m/S 723 mmHg 83%
    08:00 +7°C° 0 mm 6 m/S 723 mmHg 80%
    09:00 +8°C° 0 mm 7 m/S 722 mmHg 76%
    10:00 +9°C° 0 mm 7 m/S 722 mmHg 73%
    11:00 +10°C° 0 mm 7 m/S 722 mmHg 72%
    12:00 +11°C° 0 mm 6 m/S 723 mmHg 70%
    13:00 +13°C° 0 mm 6 m/S 723 mmHg 69%
    14:00 +12°C° 0 mm 5 m/S 723 mmHg 72%
    15:00 +10°C° 0 mm 4 m/S 724 mmHg 76%
    16:00 +9°C° 0 mm 2 m/S 724 mmHg 80%
    17:00 +8°C° 0 mm 2 m/S 724 mmHg 83%
    18:00 +8°C° 0 mm 1 m/S 724 mmHg 85%
    19:00 +7°C° 0 mm 1 m/S 724 mmHg 87%
    20:00 +7°C° 0 mm 1 m/S 724 mmHg 88%
    21:00 +7°C° 0 mm 1 m/S 724 mmHg 89%
    22:00 +7°C° 0 mm 1 m/S 723 mmHg 90%
    23:00 +7°C° 0.6 mm 1 m/S 723 mmHg 92%

    Morgen, 16 November, Samstag

    Zeit Temperatur Niederschläge Wind Luftdruck Luftfeuchtigkeit
    00:00 +7°C° 0.6 mm 1 m/S 724 mmHg 93%
    01:00 +6°C° 0.6 mm 2 m/S 724 mmHg 95%
    02:00 +5°C° 0 mm 2 m/S 724 mmHg 95%
    03:00 +6°C° 0 mm 1 m/S 724 mmHg 94%
    04:00 +6°C° 0 mm 1 m/S 724 mmHg 94%
    05:00 +6°C° 0 mm 1 m/S 724 mmHg 93%
    06:00 +6°C° 0 mm 1 m/S 725 mmHg 93%
    07:00 +6°C° 0 mm 1 m/S 725 mmHg 92%
    08:00 +6°C° 0 mm 1 m/S 726 mmHg 88%
    09:00 +7°C° 0 mm 1 m/S 726 mmHg 85%
    10:00 +8°C° 0 mm 1 m/S 727 mmHg 82%
    11:00 +9°C° 0 mm 1 m/S 727 mmHg 79%
    12:00 +9°C° 0 mm 1 m/S 728 mmHg 77%
    13:00 +10°C° 0 mm 1 m/S 728 mmHg 75%
    14:00 +9°C° 0 mm 1 m/S 729 mmHg 78%
    15:00 +9°C° 0 mm 1 m/S 729 mmHg 82%
    16:00 +7°C° 0 mm 0 m/S 729 mmHg 85%
    17:00 +7°C° 0.1 mm 0 m/S 729 mmHg 87%
    18:00 +7°C° 0.1 mm 0 m/S 730 mmHg 89%
    19:00 +6°C° 0.1 mm 0 m/S 730 mmHg 90%
    20:00 +6°C° 0 mm 0 m/S 730 mmHg 91%
    21:00 +6°C° 0 mm 0 m/S 730 mmHg 92%
    22:00 +6°C° 0 mm 0 m/S 730 mmHg 92%
    23:00 +7°C° 0 mm 1 m/S 730 mmHg 93%

    übermorgen, 17 November, Sonntag

    Zeit Temperatur Niederschläge Wind Luftdruck Luftfeuchtigkeit
    00:00 +7°C° 0 mm 1 m/S 729 mmHg 93%
    01:00 +6°C° 0 mm 1 m/S 729 mmHg 93%
    02:00 +6°C° 0 mm 1 m/S 728 mmHg 93%
    03:00 +6°C° 0 mm 1 m/S 728 mmHg 93%
    04:00 +5°C° 0 mm 2 m/S 727 mmHg 93%
    05:00 +6°C° 0 mm 2 m/S 727 mmHg 92%
    06:00 +6°C° 0 mm 2 m/S 726 mmHg 91%
    07:00 +7°C° 0 mm 3 m/S 726 mmHg 90%
    08:00 +7°C° 0 mm 4 m/S 726 mmHg 86%
    09:00 +9°C° 0 mm 5 m/S 725 mmHg 81%
    10:00 +10°C° 0 mm 6 m/S 725 mmHg 76%
    11:00 +12°C° 0 mm 7 m/S 725 mmHg 73%
    12:00 +14°C° 0 mm 7 m/S 724 mmHg 69%
    13:00 +15°C° 0 mm 8 m/S 724 mmHg 65%
    14:00 +15°C° 0 mm 8 m/S 724 mmHg 67%
    15:00 +14°C° 0 mm 7 m/S 723 mmHg 69%
    16:00 +12°C° 0 mm 7 m/S 723 mmHg 70%
    17:00 +12°C° 0.1 mm 7 m/S 723 mmHg 72%
    18:00 +11°C° 0.1 mm 7 m/S 723 mmHg 73%
    19:00 +11°C° 0.1 mm 7 m/S 723 mmHg 75%
    20:00 +10°C° 0 mm 7 m/S 723 mmHg 76%
    21:00 +10°C° 0 mm 6 m/S 723 mmHg 78%
    22:00 +9°C° 0 mm 5 m/S 723 mmHg 80%
    23:00 +10°C° 0 mm 4 m/S 723 mmHg 82%

    18 November, Montag

    Zeit Temperatur Niederschläge Wind Luftdruck Luftfeuchtigkeit
    00:00 +8°C° 0 mm 4 m/S 723 mmHg 84%
    01:00 +8°C° 0 mm 3 m/S 723 mmHg 86%
    02:00 +7°C° 0.1 mm 3 m/S 723 mmHg 86%
    03:00 +7°C° 0.1 mm 2 m/S 724 mmHg 86%
    04:00 +6°C° 0.1 mm 2 m/S 724 mmHg 86%
    05:00 +6°C° 0 mm 2 m/S 725 mmHg 86%
    06:00 +6°C° 0 mm 2 m/S 725 mmHg 87%
    07:00 +6°C° 0 mm 1 m/S 726 mmHg 87%
    08:00 +6°C° 0 mm 2 m/S 726 mmHg 84%
    09:00 +5°C° 0 mm 3 m/S 727 mmHg 81%
    10:00 +6°C° 0 mm 4 m/S 728 mmHg 79%
    11:00 +7°C° 0 mm 3 m/S 728 mmHg 77%
    12:00 +7°C° 0 mm 3 m/S 728 mmHg 75%
    13:00 +7°C° 0 mm 2 m/S 729 mmHg 73%
    14:00 +7°C° 0 mm 2 m/S 729 mmHg 75%
    15:00 +8°C° 0 mm 1 m/S 729 mmHg 76%
    16:00 +6°C° 0 mm 0 m/S 730 mmHg 77%
    17:00 +7°C° 0 mm 1 m/S 730 mmHg 78%
    18:00 +7°C° 0 mm 1 m/S 731 mmHg 79%
    19:00 +6°C° 0 mm 1 m/S 732 mmHg 80%
    20:00 +6°C° 0 mm 1 m/S 732 mmHg 81%
    21:00 +6°C° 0 mm 1 m/S 732 mmHg 81%
    22:00 +6°C° 0 mm 1 m/S 733 mmHg 82%
    23:00 +6°C° 0 mm 1 m/S 733 mmHg 83%

    19 November, Dienstag

    Zeit Temperatur Niederschläge Wind Luftdruck Luftfeuchtigkeit
    00:00 +5°C° 0 mm 0 m/S 733 mmHg 83%
    01:00 +5°C° 0 mm 0 m/S 733 mmHg 84%
    02:00 +4°C° 0 mm 0 m/S 733 mmHg 84%
    03:00 +4°C° 0 mm 0 m/S 733 mmHg 85%
    04:00 +4°C° 0 mm 0 m/S 733 mmHg 86%
    05:00 +4°C° 0 mm 0 m/S 733 mmHg 86%
    06:00 +4°C° 0 mm 0 m/S 733 mmHg 85%
    07:00 +4°C° 0 mm 0 m/S 733 mmHg 85%
    08:00 +6°C° 0 mm 1 m/S 733 mmHg 82%
    09:00 +6°C° 0 mm 1 m/S 734 mmHg 80%
    10:00 +7°C° 0 mm 1 m/S 734 mmHg 77%
    11:00 +7°C° 0 mm 1 m/S 734 mmHg 75%
    12:00 +7°C° 0 mm 1 m/S 733 mmHg 73%
    13:00 +8°C° 0 mm 1 m/S 733 mmHg 71%
    14:00 +7°C° 0 mm 1 m/S 733 mmHg 74%
    15:00 +7°C° 0 mm 1 m/S 733 mmHg 77%
    16:00 +7°C° 0 mm 1 m/S 733 mmHg 80%
    17:00 +6°C° 0.1 mm 1 m/S 733 mmHg 81%
    18:00 +6°C° 0.1 mm 1 m/S 733 mmHg 83%
    19:00 +6°C° 0.1 mm 1 m/S 733 mmHg 84%
    20:00 +6°C° 0 mm 1 m/S 733 mmHg 85%
    21:00 +5°C° 0 mm 0 m/S 733 mmHg 86%
    22:00 +5°C° 0 mm 0 m/S 733 mmHg 87%
    23:00 +5°C° 0 mm 0 m/S 733 mmHg 87%

    20 November, Mittwoch

    Zeit Temperatur Niederschläge Wind Luftdruck Luftfeuchtigkeit
    00:00 +5°C° 0 mm 0 m/S 732 mmHg 87%
    01:00 +5°C° 0 mm 0 m/S 732 mmHg 87%
    02:00 +5°C° 0 mm 0 m/S 732 mmHg 87%
    03:00 +5°C° 0 mm 0 m/S 731 mmHg 88%
    04:00 +5°C° 0 mm 0 m/S 731 mmHg 88%
    05:00 +5°C° 0 mm 0 m/S 731 mmHg 88%
    06:00 +5°C° 0 mm 0 m/S 731 mmHg 89%
    07:00 +5°C° 0 mm 0 m/S 731 mmHg 89%
    08:00 +5°C° 0 mm 0 m/S 731 mmHg 88%
    09:00 +6°C° 0 mm 0 m/S 731 mmHg 86%
    10:00 +7°C° 0 mm 1 m/S 731 mmHg 84%
    11:00 +7°C° 0 mm 0 m/S 731 mmHg 83%
    12:00 +8°C° 0 mm 0 m/S 730 mmHg 82%
    13:00 +8°C° 0 mm 0 m/S 730 mmHg 81%
    14:00 +8°C° 0 mm 0 m/S 730 mmHg 83%
    15:00 +7°C° 0 mm 0 m/S 730 mmHg 86%
    16:00 +7°C° 0 mm 0 m/S 730 mmHg 89%
    17:00 +7°C° 0 mm 0 m/S 730 mmHg 89%
    18:00 +6°C° 0 mm 0 m/S 730 mmHg 90%
    19:00 +6°C° 0 mm 0 m/S 730 mmHg 91%
    20:00 +6°C° 0 mm 0 m/S 730 mmHg 91%
    21:00 +5°C° 0 mm 0 m/S 730 mmHg 92%
    22:00 +5°C° 0 mm 0 m/S 730 mmHg 92%
    23:00 +5°C° 0 mm 0 m/S 730 mmHg 92%
    Mehr zeigen